Muskegon, MI

12:02 AM EST on November 15, 2019 (GMT -0500)
Muskegon County

Weather History for KMKG - September, 2019

Change the Weather History Date:

Tuesday, September 17, 2019

  Actual Average Record
Temperature  
Mean Temperature 71 °F 62 °F  
Max Temperature 81 °F 71 °F 88 °F (1955)
Min Temperature 60 °F 52 °F 36 °F (1959)
Degree Days  
Heating Degree Days 0 5  
Month to date heating degree days 20 51  
Since 1 July heating degree days 24 81  
Cooling Degree Days 6 1  
Month to date cooling degree days 48 44  
Year to date cooling degree days 593 551  
Growing Degree Days 20 (Base 50)    
Moisture  
Dew Point 59 °F    
Average Humidity 69    
Maximum Humidity 93    
Minimum Humidity 45    
Precipitation  
Precipitation 0.00 in 0.14 in 1.60 in (1987)
Month to date precipitation 3.59 2.16  
Year to date precipitation 30.72 22.74  
Snow  
Snow 0.00 in 0.00 in - ()
Month to date snowfall 0.0 0.0  
Since 1 July snowfall 0.0 0.0  
Since 1 September snowfall 0.0 0.0  
Snow Depth 0.00 in    
Sea Level Pressure  
Sea Level Pressure 30.18 in    
Wind  
Wind Speed 7 mph (East)    
Max Wind Speed 13 mph    
Max Gust Speed 17 mph    
Visibility 10 miles    
Events      
T = Trace of Precipitation, MM = Missing Value Source: NWS Daily Summary

Daily Weather History Graph

Daily Weather History Graph

Search for Another Location

Airport or City:

Astronomy

Sep. 17, 2019 Rise Set
Actual Time 7:26 AM EDT 7:51 PM EDT
Civil Twilight 6:57 AM EDT 8:20 PM EDT
Nautical Twilight 6:24 AM EDT 8:53 PM EDT
Astronomical Twilight 5:49 AM EDT 9:28 PM EDT
Moon 9:49 PM EDT (9/17) 10:34 AM EDT (9/17)
Length of Visible Light 13h 22m
Length of Day
12h 25m
Waning Gibbous, 89% of the Moon is Illuminated
Sep 17
Waning Gibbous
Sep 21
Last Quarter
Sep 28
New
Oct 5
First Quarter
Oct 13
Full

Hourly Weather History & Observations

Time (EDT) Temp. Heat Index Dew Point Humidity Pressure Visibility Wind Dir Wind Speed Gust Speed Precip Events Conditions
12:55 AM 64.0 °F - 61.0 °F 90% 30.14 in 10.0 mi Calm Calm - N/A   Clear
1:55 AM 64.0 °F - 60.1 °F 87% 30.15 in 10.0 mi ENE 5.8 mph - N/A   Clear
2:55 AM 63.0 °F - 60.1 °F 90% 30.16 in 10.0 mi ESE 4.6 mph - N/A   Clear
3:55 AM 62.1 °F - 59.0 °F 90% 30.16 in 10.0 mi ESE 6.9 mph - N/A   Clear
4:55 AM 62.1 °F - 57.9 °F 86% 30.17 in 10.0 mi East 6.9 mph - N/A   Clear
5:55 AM 61.0 °F - 57.9 °F 90% 30.17 in 10.0 mi East 5.8 mph - N/A   Scattered Clouds
6:55 AM 61.0 °F - 57.0 °F 87% 30.19 in 10.0 mi East 5.8 mph - N/A   Scattered Clouds
7:55 AM 61.0 °F - 57.0 °F 87% 30.22 in 10.0 mi East 6.9 mph - N/A   Mostly Cloudy
8:55 AM 62.1 °F - 57.9 °F 86% 30.23 in 10.0 mi East 6.9 mph - N/A   Mostly Cloudy
9:55 AM 64.9 °F - 59.0 °F 81% 30.23 in 10.0 mi ESE 8.1 mph - N/A   Mostly Cloudy
10:55 AM 69.1 °F - 59.0 °F 70% 30.22 in 10.0 mi East 6.9 mph - N/A   Mostly Cloudy
11:55 AM 73.0 °F - 59.0 °F 61% 30.21 in 10.0 mi ESE 9.2 mph - N/A   Mostly Cloudy
12:55 PM 77.0 °F - 59.0 °F 54% 30.20 in 10.0 mi ESE 5.8 mph - N/A   Mostly Cloudy
1:55 PM 78.1 °F - 60.1 °F 54% 30.19 in 10.0 mi East 6.9 mph - N/A   Scattered Clouds
2:55 PM 81.0 °F 81.0 °F 57.0 °F 44% 30.17 in 10.0 mi East 8.1 mph - N/A   Scattered Clouds
3:55 PM 80.1 °F 80.4 °F 57.0 °F 45% 30.16 in 10.0 mi East 5.8 mph - N/A   Scattered Clouds
4:55 PM 79.0 °F - 59.0 °F 50% 30.14 in 10.0 mi SE 11.5 mph - N/A   Scattered Clouds
5:55 PM 77.0 °F - 57.9 °F 52% 30.14 in 10.0 mi East 10.4 mph - N/A   Scattered Clouds
6:55 PM 73.0 °F - 59.0 °F 61% 30.15 in 10.0 mi East 8.1 mph - N/A   Scattered Clouds
7:55 PM 70.0 °F - 60.1 °F 71% 30.15 in 10.0 mi ESE 8.1 mph - N/A   Mostly Cloudy
8:55 PM 66.9 °F - 60.1 °F 79% 30.15 in 10.0 mi East 10.4 mph - N/A   Mostly Cloudy
9:55 PM 64.0 °F - 59.0 °F 84% 30.17 in 10.0 mi East 6.9 mph - N/A   Mostly Cloudy
10:55 PM 63.0 °F - 57.9 °F 84% 30.17 in 10.0 mi ESE 5.8 mph - N/A   Mostly Cloudy
11:55 PM 62.1 °F - 57.9 °F 86% 30.17 in 10.0 mi ESE 6.9 mph - N/A   Clear